Regional Weather Roundup
Issued by NWS

Home | Current Version | Previous Version | Graphics & Text | Print | Product List | Glossary Off
Versions: 1 2 3 4 5 6 7 8 9 10 11 12 13 14 15 16 17 18 19 20 21 22 23 24 25 26 27 28 29 30 31 32 33 34 35 36 37 38 39 40 41 42 43 44 45 46 47 48 49 50

000
ASUS43 KLSX 291859
RWRMO

WEATHER SUMMARY FOR MISSOURI
NATIONAL WEATHER SERVICE SPRINGFIELD MO
200 PM CDT MON JUN 29 2015

NOTE: "FAIR" INDICATES FEW OR NO CLOUDS BELOW 12,000 FEET WITH NO
       SIGNIFICANT WEATHER AND/OR OBSTRUCTIONS TO VISIBILITY.
       CURRENT SKY AND/OR WEATHER CONDITIONS ARE NOT AVAILABLE FOR
       CHILLICOTHE AND FARMINGTON.

MOZ001>031-035>038-043-044-053-054-292000-
...NORTHERN AND WESTERN MISSOURI...

CITY           SKY/WX    TMP DP  RH WIND       PRES   REMARKS
KANSAS CTY INT CLOUDY    84  64  50 N8        29.94F
KANSAS C DTWN  MOSUNNY   86  64  47 NW10G18   29.93S
LEE`S SUMMIT   SUNNY     85  64  49 NW9G18    29.95S
ST JOSEPH      MOSUNNY   87  63  44 NW15      29.93F
CHILLICOTHE      N/A     85  65  51 VRB7      29.91F
KIRKSVILLE     MOSUNNY   83  64  52 NW9G18    29.90S

$$
MOZ066>068-077>081-088>096-101>105-292000-
...SOUTHWEST MISSOURI...

CITY           SKY/WX    TMP DP  RH WIND       PRES   REMARKS
SPRINGFIELD    MOSUNNY   85  65  51 N9        29.95F
JOPLIN         SUNNY     86  65  49 NW12      29.97S

$$
MOZ032>034-039>042-045>050-055>058-069>072-292000-
...CENTRAL MISSOURI...

CITY           SKY/WX    TMP DP  RH WIND       PRES   REMARKS
COLUMBIA       MOSUNNY   83  64  52 W12G18    29.91S
JEFFERSON CITY SUNNY     84  62  47 NW9       29.89S
ROLLA          MOSUNNY   82  67  60 NW8       29.91S
SEDALIA        SUNNY     84  66  54 NW8       29.93F
OSAGE BEACH    MOSUNNY   82  64  54 W7        29.92S

$$
MOZ051-052-059>065-292000-
...EAST CENTRAL MISSOURI...

CITY           SKY/WX    TMP DP  RH WIND       PRES   REMARKS
ST LOUIS INTL  MOSUNNY   81  66  60 NW9       29.88F
SPIRIT OF STL  PTSUNNY   80  66  62 NW8       29.87S
ST CHARLES     SUNNY     80  66  62 W9        29.87S

$$
MOZ072>076-082>087-097>100-106>115-292000-
...SOUTH CENTRAL AND SOUTHEAST MISSOURI...

CITY           SKY/WX    TMP DP  RH WIND       PRES   REMARKS
CAPE GIRARDEAU SUNNY     87  64  46 NW9       29.85S
FARMINGTON     MOSUNNY   82  64  54 W8        29.93S
POPLAR BLUFF   MOSUNNY   89  66  46 NW8       29.85S HX  91
WEST PLAINS    MOSUNNY   83  64  52 NW9G18    29.94S

$$



USA.gov is the U.S. government's official web portal to all federal, state and local government web resources and services.